SCP
0 0 0 0 0 0 0 0 0 0 0 0 0 0 0 0 0 0 0 0 0 0 0 0 0 0 0 0 0 0 0 0 0 0 0 0 0 0 0 0 0 0 0
0 0 0 0 0 0 0 0 0 0 0 0 0 0 0 0 0 0 0 0 0 0 0 0 0 0 0 0 0 0 0 0 0 0 0 0 0 0 0 0 0 0 0
0 0 0 0 0 0 0 0 0 0 0 0 0 0 0 0 0 0 0 0 0 0 0 0 0 0 0 0 0 0 0 0 0 0 0 0 0 0 0 0 0 0 0
0 0 0 0 0 0 0 0 0 0 0 0 0 0 0 0 0 0 0 0 0 0 0 0 0 0 0 0 0 0 0 0 0 0 0 0 0 0 0 0 0 0 0
0 0 0 0 0 0 0 0 0 0 0 0 0 0 0 0 0 0 0 0 0 0 0 0 0 0 0 0 0 0 0 0 0 0 0 0 0 0 0 0 0 0 0
0 0 0 0 0 0 0 0 0 0 0 0 0 0 0 0 0 0 0 0 0 0 0 0 0 0 0 0 0 0 0 0 0 0 0 0 0 0 0 0 0 0 0
0 0 0 0 0 0 0 0 0 0 0 0 0 0 0 0 0 0 0 0 0 0 0 0 0 0 0 0 0 0 0 0 0 0 0 0 0 0 0 0 0 0 0
0 0 0 0 0 0 0 0 0 0 0 0 0 0 0 0 0 0 0 0 0 0 0 0 0 0 0 0 0 0 0 0 0 0 0 0 0 0 0 0 0 0 0
0 0 0 0 0 0 0 0 0 0 0 0 0 0 0 0 0 0 0 0 0 0 0 0 0 0 0 0 0 0 0 0 0 0 0 0 0 0 0 0 0 0 0
0 0 0 0 0 0 0 0 0 0 0 0 0 0 0 0 0 0 0 0 0 0 0 0 0 0 0 0 0 0 0 0 0 0 0 0 0 0 0 0 0 0 0
0 0 0 0 0 0 0 0 0 0 0 0 0 0 0 0 0 0 0 0 0 0 0 0 0 0 0 0 0 0 0 0 0 0 0 0 0 0 0 0 0 0 0
0 0 0 0 0 0 0 0 0 0 0 0 0 0 0 0 0 0 0 0 0 0 0 0 0 0 0 0 0 0 0 0 0 0 0 0 0 0 0 0 0 0 0
0 0 0 0 0 0 0 0 0 0 0 0 0 0 0 0 0 0 0 0 0 0 0 0 0 0 0 0 0 0 0 0 0 0 0 0 0 0 0 0 0 0 0
0 0 0 0 0 0 0 0 0 0 0 0 0 0 0 0 0 0 0 0 0 0 0 0 0 0 0 0 0 0 0 0 0 0 0 0 0 0 0 0 0 0 0
0 0 0 0 0 0 0 0 0 0 0 0 0 0 0 0 0 0 0 0 0 0 0 0 0 0 0 0 0 0 0 0 0 0 0 0 0 0 0 0 0 0 0
0 0 0 0 0 0 0 0 0 0 0 0 0 0 0 0 0 0 0 0 0 0 0 0 0 0 0 0 0 0 0 0 0 0 0 0 0 0 0 0 0 0 0
0 0 0 0 0 0 0 0 0 0 0 0 0 0 0 0 0 0 0 0 0 0 0 0 0 0 0 0 0 0 0 0 0 0 0 0 0 0 0 0 0 0 0
0 0 0 0 0 0 0 0 0 0 0 0 0 0 0 0 0 0 0 0 0 0 0 0 0 0 0 0 0 0 0 0 0 0 0 0 0 0 0 0 0 0 0
0 0 0 0 0 0 0 0 0 0 0 0 0 0 0 0 0 0 0 0 0 0 0 0 0 0 0 0 0 0 0 0 0 0 0 0 0 0 0 0 0 0 0
0 0 0 0 0 0 0 0 0 0 0 0 0 0 0 0 0 0 0 0 0 0 0 0 0 0 0 0 0 0 0 0 0 0 0 0 0 0 0 0 0 0 0
0 0 0 0 0 0 0 0 0 0 0 0 0 0 0 0 0 0 0 0 0 0 0 0 0 0 0 0 0 0 0 0 0 0 0 0 0 0 0 0 0 0 0
0 0 0 0 0 0 0 0 0 0 0 0 0 0 0 0 0 0 0 0 0 0 0 0 0 0 0 0 0 0 0 0 0 0 0 0 0 0 0 0 0 0 0
0 0 0 0 0 0 0 0 0 0 0 0 0 0 0 0 0 0 0 0 0 0 0 0 0 0 0 0 0 0 0 0 0 0 0 0 0 0 0 0 0 0 0
0 0 0 0 0 0 0 0 0 0 0 0 0 0 0 0 0 0 0 0 0 0 0 0 0 0 0 0 0 0 0 0 0 0 0 0 0 0 0 0 0 0 0
0 0 0 0 0 0 0 0 0 0 0 0 0 0 0 0 0 0 0 0 0 0 0 0 0 0 0 0 0 0 0 0 -0 0 0 0 0 0 0 0 0 0 0
0 0 0 0 0 0 0 0 0 0 0 0 0 0 0 0 0 0 0 0 0 0 0 0 0 0 0 0 0 0 0 0 -0 0 0 0 0 0 0 0 0 0 0
Wind_Speed
4 4 4 4 3 4 4 3 3 3 3 3 3 3 3 3 3 3 3 3 3 3 3 3 2 2 2 1 1 1 2 2 3 1 0 1 1 1 1 1 1 2 2
4 4 4 3 4 4 4 3 3 3 3 3 3 3 3 3 3 4 3 4 3 3 3 3 3 2 3 2 1 2 1 2 3 3 0 1 1 0 1 1 1 1 1
4 4 4 3 3 3 3 3 3 3 3 4 4 3 3 4 4 3 3 3 3 3 3 3 2 3 3 2 2 2 1 2 2 3 2 1 0 0 1 1 1 1 1
4 3 3 2 2 2 2 3 3 3 3 4 4 3 3 4 4 3 4 3 3 3 3 3 3 2 2 2 2 2 2 3 3 3 2 1 1 1 1 1 1 1 1
3 3 2 1 2 2 2 2 3 3 4 3 4 4 4 4 3 3 3 3 3 3 3 3 3 3 3 2 2 1 2 3 3 3 2 1 1 1 0 0 0 1 2
3 2 2 2 2 2 2 2 3 3 4 4 4 4 4 3 4 5 3 3 3 3 2 2 2 3 4 5 4 3 3 3 2 2 1 2 1 1 1 1 1 1 2
3 3 3 3 3 2 2 3 3 3 3 4 3 3 4 4 5 5 5 3 3 2 2 2 2 3 3 2 3 4 3 2 3 3 3 2 2 2 2 1 1 1 2
3 3 3 3 3 2 3 2 2 2 2 2 2 2 3 4 5 6 6 4 3 2 2 2 2 2 2 2 2 3 3 2 0 2 3 3 3 3 3 3 3 1 1
4 3 3 4 3 3 2 1 1 1 1 1 1 2 2 3 5 5 5 3 3 3 3 3 2 2 3 3 3 3 3 2 2 2 1 1 2 2 3 2 2 2 1
3 3 3 4 3 2 2 1 1 1 1 1 1 1 1 2 3 4 4 2 3 2 3 3 3 2 3 3 2 2 2 1 2 2 3 3 1 1 1 3 3 3 1
3 3 3 3 3 2 1 1 1 1 1 1 1 2 2 1 2 3 4 2 1 1 2 2 2 3 3 3 2 1 1 1 0 1 1 2 2 1 1 1 3 4 3
4 3 3 2 2 2 2 1 1 1 2 1 1 2 2 2 2 2 2 2 1 1 1 2 3 4 4 3 1 1 1 1 1 1 1 1 1 2 2 2 2 3 4
4 3 2 2 1 1 2 1 1 1 1 0 0 1 2 2 2 3 4 3 2 1 1 3 5 5 4 3 3 3 1 1 1 1 1 2 2 3 2 2 2 2 3
4 3 2 2 1 1 1 1 1 1 1 1 1 1 2 2 2 2 2 2 3 2 2 4 6 5 3 3 3 2 1 1 1 1 2 2 2 2 2 1 1 2 2
3 2 2 1 1 0 1 1 1 2 3 3 3 3 2 2 4 4 2 1 1 2 2 2 2 3 3 3 3 3 2 1 1 1 1 2 2 2 2 1 1 1 1
3 2 2 1 1 1 1 2 3 3 4 4 5 4 3 5 5 4 4 3 3 2 1 1 2 2 2 2 3 3 2 2 2 2 2 2 2 2 2 2 1 1 2
4 3 2 2 2 2 2 2 2 4 4 5 5 6 5 5 6 5 4 4 3 1 0 2 3 3 3 3 3 3 3 3 2 2 3 3 2 2 2 2 2 2 2
4 4 3 3 3 3 3 3 3 3 3 4 5 7 7 8 8 6 4 2 3 1 2 3 4 4 3 3 3 3 3 3 2 3 3 3 3 2 2 2 2 2 3
3 3 3 3 3 3 3 3 3 4 4 3 3 4 6 6 6 6 3 2 3 4 3 4 4 4 4 4 4 4 4 3 3 3 3 3 3 2 3 3 3 4 3
3 5 4 3 2 2 3 3 3 4 4 4 4 5 2 1 2 3 3 4 4 5 5 5 5 5 4 4 4 4 3 4 4 4 4 4 3 3 4 4 4 3 4
3 4 5 3 3 4 4 4 4 4 4 5 6 6 6 4 5 6 5 5 6 6 6 6 6 5 5 4 4 4 4 4 4 4 4 4 3 3 4 4 4 4 4
3 3 4 4 4 4 4 4 4 4 5 6 5 5 8 5 5 5 6 6 6 6 6 6 5 5 5 5 5 4 4 4 4 4 4 4 4 4 4 3 4 4 4
3 3 3 3 4 5 5 4 4 5 5 6 6 5 4 5 6 6 7 7 6 6 6 5 6 6 6 5 5 5 5 6 6 5 5 4 4 4 4 4 5 5 5
4 4 4 4 4 4 4 5 5 5 6 6 5 5 5 6 7 8 7 7 6 6 6 6 7 8 10 7 5 5 6 6 6 5 7 6 5 5 5 5 6 6 7
4 4 4 5 4 4 4 5 5 5 5 5 5 5 6 6 6 7 7 6 7 7 8 7 6 7 10 11 9 8 8 9 8 6 5 5 6 6 6 7 7 7 7
5 5 5 5 5 5 5 5 6 6 6 6 6 6 6 6 7 7 6 6 6 7 7 7 8 10 11 9 10 11 10 10 9 9 6 5 6 7 7 7 8 8 8
Wind_Direction
88 84 78 69 62 59 55 45 43 36 37 43 38 41 39 34 31 41 38 39 49 39 31 43 29 32 35 26 54 84 101 122 140 167 356 16 49 66 35 23 32 33 37
103 93 82 70 63 55 45 35 38 34 32 40 41 46 48 45 40 45 44 40 47 45 39 44 30 42 41 38 62 81 107 125 138 141 96 39 56 116 70 44 23 42 35
109 100 87 71 63 54 44 36 35 35 35 36 45 50 52 47 44 42 47 44 43 48 51 49 33 49 43 40 64 78 99 106 112 131 130 77 58 90 71 30 29 12 359
118 113 104 93 83 71 60 48 42 42 49 45 44 51 52 49 41 39 46 50 46 43 41 46 40 51 54 54 71 78 100 102 103 111 105 81 59 44 85 69 16 357 354
126 124 124 117 98 85 72 55 48 47 55 54 58 49 41 43 32 39 44 55 56 48 37 37 47 62 62 63 93 103 106 101 104 110 110 90 79 92 151 170 92 349 340
131 138 137 120 99 93 84 70 61 51 50 56 56 50 40 31 30 45 54 59 63 64 47 26 36 42 45 54 66 83 112 123 126 125 133 146 175 178 162 139 121 57 324
124 133 134 122 111 106 97 84 71 58 58 55 50 49 39 19 35 46 55 77 73 64 60 41 36 34 32 45 49 51 56 99 148 155 152 175 183 193 161 149 163 176 233
132 131 125 118 111 103 95 88 78 71 69 59 47 36 34 16 30 49 56 74 72 56 50 59 62 19 21 58 66 54 38 32 97 157 174 199 202 196 179 176 177 173 293
137 135 130 128 123 113 101 90 87 86 70 59 44 43 36 358 21 48 63 63 61 37 22 34 57 42 24 63 76 65 40 10 33 71 137 199 215 206 175 127 109 93 360
145 145 141 136 132 135 134 115 87 97 95 68 44 21 33 354 11 49 72 77 59 24 11 10 24 36 31 57 83 85 58 346 359 9 21 14 360 328 168 163 163 149 170
144 133 124 125 138 141 120 98 97 78 67 53 30 354 356 341 1 40 65 83 92 35 10 348 333 359 16 33 83 133 211 261 311 19 2 341 329 315 285 217 189 172 174
128 120 115 113 130 124 109 90 84 84 71 36 23 351 339 341 356 5 31 68 110 106 330 312 306 323 341 348 359 334 23 75 78 50 22 318 297 286 277 267 236 217 212
122 121 117 98 80 110 121 127 84 68 77 21 32 339 324 333 341 0 17 37 54 67 287 294 306 313 328 335 321 326 3 81 83 64 290 271 262 268 288 309 309 293 279
132 137 138 121 74 48 68 150 156 178 193 211 227 264 295 310 314 328 343 360 7 6 337 319 324 326 330 316 318 327 324 204 180 211 250 269 288 300 290 283 297 326 334
145 147 148 151 157 92 352 270 211 231 213 206 219 213 214 255 264 253 241 271 283 300 330 349 1 351 341 338 327 311 304 300 254 241 248 280 297 302 292 278 253 259 272
158 168 170 175 186 183 204 325 312 268 272 246 230 217 225 231 244 251 253 263 275 289 7 332 316 305 290 282 281 288 282 264 252 244 242 244 261 269 280 288 255 230 251
176 190 190 195 202 211 213 216 278 310 308 288 263 247 236 237 244 253 270 296 291 250 265 281 279 275 271 265 254 247 253 255 242 231 234 243 250 258 260 273 278 270 267
190 205 205 212 219 220 224 223 222 236 272 290 281 259 252 248 252 260 277 323 311 290 246 267 270 267 262 257 253 248 254 261 246 234 233 237 234 235 248 260 262 255 263
197 208 214 219 220 223 230 236 237 237 241 253 272 279 262 260 269 268 245 219 252 269 267 266 262 259 258 257 254 249 247 243 236 228 232 233 234 231 245 255 261 269 265
211 225 219 219 233 242 243 245 247 245 247 249 251 252 245 218 255 259 234 231 239 253 257 258 260 255 253 255 255 251 250 247 241 232 234 238 237 230 240 251 254 258 258
213 232 234 235 243 245 248 249 245 240 244 248 251 248 221 216 235 243 242 237 237 244 249 250 253 256 256 252 248 246 244 243 238 235 238 241 238 239 243 243 250 252 257
212 230 230 232 239 246 250 247 243 243 248 253 263 268 242 233 241 246 247 247 243 241 239 237 244 246 242 241 238 236 238 238 239 234 235 237 236 238 241 244 250 253 256
210 227 238 244 245 253 260 259 251 248 251 253 255 258 247 237 242 245 248 249 248 247 242 231 237 249 249 242 232 222 226 234 233 221 219 229 233 235 235 241 249 256 259
216 229 240 249 250 250 254 259 258 256 254 256 254 250 247 243 244 247 248 248 247 246 243 237 237 240 243 244 240 234 231 233 229 226 220 224 231 238 238 242 248 251 255
223 234 239 241 245 250 254 257 258 259 260 261 258 254 252 248 247 249 250 250 250 249 249 246 243 243 242 243 244 245 241 238 236 233 230 228 237 240 242 245 249 254 256
229 237 241 243 245 249 250 254 259 259 259 261 260 255 252 251 250 251 251 250 250 251 253 251 246 245 245 245 247 248 245 243 244 241 235 236 241 247 247 250 254 255 258